Time,TemperatureF,DewpointF,PressureIn,WindDirection,WindDirectionDegrees,WindSpeedMPH,WindSpeedGustMPH,Humidity,HourlyPrecipIn,Conditions,Clouds,dailyrainin,SoftwareType,DateUTC
2013-05-02 00:05:00,73.0,63.8,29.87,SE,124,1.0,4.0,73,0.00,,,0.00,Wunderground v.1.15,2013-05-02 05:05:00,
2013-05-02 00:10:00,73.2,63.6,29.86,SE,124,2.0,2.0,72,0.00,,,0.00,Wunderground v.1.15,2013-05-02 05:10:00,
2013-05-02 00:20:00,73.0,63.0,29.86,SE,124,1.0,3.0,71,0.00,,,0.00,Wunderground v.1.15,2013-05-02 05:20:00,
2013-05-02 00:25:00,73.0,63.0,29.87,SE,124,1.0,3.0,71,0.00,,,0.00,Wunderground v.1.15,2013-05-02 05:25:00,
2013-05-02 00:35:00,72.8,62.8,29.88,SE,124,0.0,1.0,71,0.00,,,0.00,Wunderground v.1.15,2013-05-02 05:35:00,
2013-05-02 00:40:00,72.7,62.8,29.88,SE,124,0.0,0.0,71,0.00,,,0.00,Wunderground v.1.15,2013-05-02 05:40:00,
2013-05-02 00:50:00,72.5,62.6,29.86,SE,124,1.0,1.0,71,0.00,,,0.00,Wunderground v.1.15,2013-05-02 05:50:00,
2013-05-02 00:55:00,72.5,63.0,29.87,SE,124,1.0,1.0,72,0.00,,,0.00,Wunderground v.1.15,2013-05-02 05:55:00,
2013-05-02 01:05:00,72.1,63.0,29.91,SE,126,1.0,7.0,73,0.00,,,0.00,Wunderground v.1.15,2013-05-02 06:05:00,
2013-05-02 01:10:00,71.8,61.9,29.92,West,265,5.0,18.0,71,0.00,,,0.00,Wunderground v.1.15,2013-05-02 06:10:00,
2013-05-02 01:20:00,70.1,57.8,29.94,NW,309,7.0,7.0,65,0.00,,,0.00,Wunderground v.1.15,2013-05-02 06:20:00,
2013-05-02 01:25:00,69.3,57.0,29.95,WNW,301,6.0,7.0,65,0.00,,,0.00,Wunderground v.1.15,2013-05-02 06:25:00,
2013-05-02 01:35:00,65.2,59.2,29.96,NNW,335,5.0,12.0,81,0.43,,,0.04,Wunderground v.1.15,2013-05-02 06:35:00,
2013-05-02 01:40:00,63.4,59.1,29.96,NW,308,5.0,5.0,86,0.88,,,0.12,Wunderground v.1.15,2013-05-02 06:40:00,
2013-05-02 01:50:00,61.8,58.5,29.95,NW,313,2.0,2.0,89,0.28,,,0.25,Wunderground v.1.15,2013-05-02 06:50:00,
2013-05-02 01:55:00,61.5,58.8,29.95,NW,313,2.0,2.0,91,0.19,,,0.27,Wunderground v.1.15,2013-05-02 06:55:00,
2013-05-02 02:05:00,61.0,58.7,29.94,NNW,330,3.0,3.0,92,0.36,,,0.36,Wunderground v.1.15,2013-05-02 07:05:00,
2013-05-02 02:10:00,60.9,58.9,29.93,NNW,346,2.0,2.0,93,0.19,,,0.37,Wunderground v.1.15,2013-05-02 07:10:00,
2013-05-02 02:20:00,60.7,58.7,29.90,West,278,3.0,6.0,93,0.05,,,0.37,Wunderground v.1.15,2013-05-02 07:20:00,
2013-05-02 02:25:00,60.5,58.8,29.88,WSW,250,4.0,6.0,94,0.00,,,0.37,Wunderground v.1.15,2013-05-02 07:25:00,
2013-05-02 02:35:00,60.4,60.1,29.89,SSE,162,4.0,5.0,99,0.00,,,0.37,Wunderground v.1.15,2013-05-02 07:35:00,
2013-05-02 02:40:00,60.7,60.4,29.89,ESE,114,2.0,7.0,99,0.00,,,0.37,Wunderground v.1.15,2013-05-02 07:40:00,
2013-05-02 02:50:00,60.5,60.2,29.89,SW,217,6.0,6.0,99,0.00,,,0.37,Wunderground v.1.15,2013-05-02 07:50:00,
2013-05-02 02:55:00,60.5,60.2,29.87,SSE,157,6.0,6.0,99,0.00,,,0.37,Wunderground v.1.15,2013-05-02 07:55:00,
2013-05-02 03:05:00,60.7,60.7,29.87,South,169,3.0,7.0,100,0.00,,,0.37,Wunderground v.1.15,2013-05-02 08:05:00,
2013-05-02 03:10:00,60.9,60.9,29.85,South,172,1.0,6.0,100,0.00,,,0.37,Wunderground v.1.15,2013-05-02 08:10:00,
2013-05-02 03:20:00,60.7,60.7,29.81,SSW,196,6.0,11.0,100,0.00,,,0.37,Wunderground v.1.15,2013-05-02 08:20:00,
2013-05-02 03:25:00,60.7,60.7,29.81,South,174,6.0,11.0,100,0.00,,,0.38,Wunderground v.1.15,2013-05-02 08:25:00,
2013-05-02 03:34:00,60.9,60.9,29.85,NNE,20,4.0,6.0,100,0.00,,,0.38,Wunderground v.1.15,2013-05-02 08:34:00,
2013-05-02 03:40:00,60.9,60.9,29.85,NNE,23,4.0,6.0,100,0.00,,,0.38,Wunderground v.1.15,2013-05-02 08:40:00,
2013-05-02 03:50:00,60.9,60.9,29.90,North,353,3.0,3.0,100,0.00,,,0.38,Wunderground v.1.15,2013-05-02 08:50:00,
2013-05-02 03:55:00,60.9,60.9,29.90,North,354,3.0,3.0,100,0.00,,,0.38,Wunderground v.1.15,2013-05-02 08:55:00,
2013-05-02 04:05:00,60.7,60.7,29.89,North,354,0.0,1.0,100,0.00,,,0.38,Wunderground v.1.15,2013-05-02 09:05:00,
2013-05-02 04:10:00,60.7,60.7,29.89,North,354,0.0,0.0,100,0.00,,,0.38,Wunderground v.1.15,2013-05-02 09:10:00,
2013-05-02 04:20:00,60.7,60.7,29.89,North,354,0.0,0.0,100,0.00,,,0.38,Wunderground v.1.15,2013-05-02 09:20:00,
2013-05-02 04:25:00,60.5,60.5,29.89,North,354,0.0,0.0,100,0.00,,,0.38,Wunderground v.1.15,2013-05-02 09:25:00,
2013-05-02 04:35:00,60.5,60.5,29.89,North,354,0.0,0.0,100,0.00,,,0.38,Wunderground v.1.15,2013-05-02 09:35:00,
2013-05-02 04:40:00,60.5,60.5,29.89,North,350,3.0,3.0,100,0.00,,,0.38,Wunderground v.1.15,2013-05-02 09:40:00,
2013-05-02 04:50:00,60.7,60.7,29.89,North,349,2.0,2.0,100,0.00,,,0.38,Wunderground v.1.15,2013-05-02 09:50:00,
2013-05-02 04:55:00,60.7,60.7,29.89,North,349,1.0,2.0,100,0.00,,,0.38,Wunderground v.1.15,2013-05-02 09:55:00,
2013-05-02 05:05:00,60.7,60.7,29.89,North,349,0.0,0.0,100,0.00,,,0.38,Wunderground v.1.15,2013-05-02 10:05:00,
2013-05-02 05:10:00,60.7,60.7,29.89,North,349,0.0,0.0,100,0.00,,,0.38,Wunderground v.1.15,2013-05-02 10:10:00,
2013-05-02 05:20:00,60.7,60.7,29.89,North,349,0.0,0.0,100,0.00,,,0.38,Wunderground v.1.15,2013-05-02 10:20:00,
2013-05-02 05:25:00,60.7,60.7,29.89,North,349,0.0,0.0,100,0.00,,,0.38,Wunderground v.1.15,2013-05-02 10:25:00,
2013-05-02 05:35:00,60.7,60.7,29.90,NNW,347,2.0,2.0,100,0.00,,,0.38,Wunderground v.1.15,2013-05-02 10:35:00,
2013-05-02 05:40:00,60.7,60.7,29.90,NNW,346,3.0,7.0,100,0.00,,,0.38,Wunderground v.1.15,2013-05-02 10:40:00,
2013-05-02 05:50:00,60.7,60.7,29.91,NNW,342,3.0,3.0,100,0.00,,,0.38,Wunderground v.1.15,2013-05-02 10:50:00,
2013-05-02 05:55:00,60.9,60.9,29.91,NNW,339,3.0,5.0,100,0.00,,,0.38,Wunderground v.1.15,2013-05-02 10:55:00,
2013-05-02 06:05:00,61.5,61.5,29.92,NW,315,3.0,6.0,100,0.00,,,0.38,Wunderground v.1.15,2013-05-02 11:05:00,
2013-05-02 06:10:00,61.6,61.6,29.92,NW,325,4.0,10.0,100,0.00,,,0.38,Wunderground v.1.15,2013-05-02 11:10:00,
2013-05-02 06:20:00,61.5,61.5,29.93,NW,325,5.0,13.0,100,0.00,,,0.38,Wunderground v.1.15,2013-05-02 11:20:00,
2013-05-02 06:25:00,61.2,61.2,29.93,NW,309,5.0,13.0,100,0.00,,,0.38,Wunderground v.1.15,2013-05-02 11:25:00,
2013-05-02 06:35:00,60.7,60.7,29.94,NW,319,4.0,6.0,100,0.00,,,0.38,Wunderground v.1.15,2013-05-02 11:35:00,
2013-05-02 06:40:00,59.8,59.8,29.95,NNW,346,5.0,5.0,100,0.00,,,0.38,Wunderground v.1.15,2013-05-02 11:40:00,
2013-05-02 06:50:00,58.4,56.4,29.97,North,3,8.0,8.0,93,0.00,,,0.38,Wunderground v.1.15,2013-05-02 11:50:00,
2013-05-02 06:55:00,58.3,56.0,29.98,NNW,336,9.0,9.0,92,0.00,,,0.38,Wunderground v.1.15,2013-05-02 11:55:00,
2013-05-02 07:05:00,57.5,54.9,30.00,NNW,340,10.0,18.0,91,0.00,,,0.38,Wunderground v.1.15,2013-05-02 12:05:00,
2013-05-02 07:10:00,56.9,53.4,30.00,NNW,333,12.0,12.0,88,0.00,,,0.38,Wunderground v.1.15,2013-05-02 12:10:00,
2013-05-02 07:20:00,56.3,52.8,30.01,NNW,328,8.0,8.0,88,0.00,,,0.38,Wunderground v.1.15,2013-05-02 12:20:00,
2013-05-02 07:25:00,56.0,52.5,30.02,NW,319,8.0,18.0,88,0.00,,,0.38,Wunderground v.1.15,2013-05-02 12:25:00,
2013-05-02 07:35:00,55.1,51.3,30.03,NW,320,8.0,11.0,87,0.00,,,0.38,Wunderground v.1.15,2013-05-02 12:35:00,
2013-05-02 07:40:00,54.7,50.9,30.03,NW,308,9.0,10.0,87,0.00,,,0.38,Wunderground v.1.15,2013-05-02 12:40:00,
2013-05-02 07:50:00,54.1,50.3,30.04,NW,319,8.0,8.0,87,0.00,,,0.38,Wunderground v.1.15,2013-05-02 12:50:00,
2013-05-02 07:55:00,53.8,50.0,30.04,NNW,339,8.0,10.0,87,0.00,,,0.38,Wunderground v.1.15,2013-05-02 12:55:00,
2013-05-02 08:05:00,53.3,49.2,30.05,North,0,9.0,9.0,86,0.00,,,0.38,Wunderground v.1.15,2013-05-02 13:05:00,
2013-05-02 08:10:00,53.1,49.0,30.06,North,354,9.0,14.0,86,0.00,,,0.38,Wunderground v.1.15,2013-05-02 13:10:00,
2013-05-02 08:20:00,52.8,49.0,30.06,WNW,296,9.0,14.0,87,0.00,,,0.38,Wunderground v.1.15,2013-05-02 13:20:00,
2013-05-02 08:25:00,52.5,48.7,30.06,North,0,10.0,14.0,87,0.00,,,0.38,Wunderground v.1.15,2013-05-02 13:25:00,
2013-05-02 08:35:00,52.2,49.1,30.07,NW,325,7.0,12.0,89,0.00,,,0.38,Wunderground v.1.15,2013-05-02 13:35:00,
2013-05-02 08:40:00,51.4,48.0,30.07,NNW,342,8.0,9.0,88,0.00,,,0.38,Wunderground v.1.15,2013-05-02 13:40:00,
2013-05-02 08:50:00,50.8,47.7,30.07,NNW,346,9.0,9.0,89,0.00,,,0.38,Wunderground v.1.15,2013-05-02 13:50:00,
2013-05-02 08:55:00,50.5,47.1,30.08,NNW,346,10.0,10.0,88,0.00,,,0.38,Wunderground v.1.15,2013-05-02 13:55:00,
2013-05-02 09:05:00,50.4,47.0,30.08,NNW,335,10.0,17.0,88,0.00,,,0.38,Wunderground v.1.15,2013-05-02 14:05:00,
2013-05-02 09:10:00,50.4,46.7,30.09,NNW,330,10.0,10.0,87,0.00,,,0.38,Wunderground v.1.15,2013-05-02 14:10:00,
2013-05-02 09:20:00,50.4,46.4,30.10,NW,326,10.0,11.0,86,0.00,,,0.38,Wunderground v.1.15,2013-05-02 14:20:00,
2013-05-02 09:25:00,49.9,45.9,30.10,NW,306,12.0,12.0,86,0.00,,,0.38,Wunderground v.1.15,2013-05-02 14:25:00,
2013-05-02 09:35:00,49.5,45.5,30.10,North,354,13.0,14.0,86,0.00,,,0.38,Wunderground v.1.15,2013-05-02 14:35:00,
2013-05-02 09:40:00,49.2,45.5,30.11,NNW,347,12.0,12.0,87,0.00,,,0.38,Wunderground v.1.15,2013-05-02 14:40:00,
2013-05-02 09:50:00,48.6,44.9,30.12,North,1,11.0,11.0,87,0.00,,,0.38,Wunderground v.1.15,2013-05-02 14:50:00,
2013-05-02 09:55:00,48.2,44.5,30.13,NNW,344,11.0,17.0,87,0.00,,,0.38,Wunderground v.1.15,2013-05-02 14:55:00,
2013-05-02 10:05:00,48.0,44.9,30.14,NW,316,10.0,12.0,89,0.00,,,0.38,Wunderground v.1.15,2013-05-02 15:05:00,
2013-05-02 10:10:00,48.0,45.2,30.14,WNW,295,9.0,17.0,90,0.00,,,0.38,Wunderground v.1.15,2013-05-02 15:10:00,
2013-05-02 10:20:00,47.6,45.1,30.14,NNW,328,9.0,19.0,91,0.00,,,0.38,Wunderground v.1.15,2013-05-02 15:20:00,
2013-05-02 10:25:00,47.4,45.2,30.15,NNW,346,12.0,19.0,92,0.00,,,0.38,Wunderground v.1.15,2013-05-02 15:25:00,
2013-05-02 10:35:00,47.3,45.1,30.16,North,354,10.0,14.0,92,0.00,,,0.38,Wunderground v.1.15,2013-05-02 15:35:00,
2013-05-02 10:40:00,47.3,45.1,30.16,NNW,330,11.0,16.0,92,0.00,,,0.38,Wunderground v.1.15,2013-05-02 15:40:00,
2013-05-02 10:50:00,46.8,44.3,30.17,NW,325,12.0,19.0,91,0.00,,,0.38,Wunderground v.1.15,2013-05-02 15:50:00,
2013-05-02 10:55:00,47.0,44.5,30.17,NNW,342,12.0,19.0,91,0.00,,,0.38,Wunderground v.1.15,2013-05-02 15:55:00,
2013-05-02 11:05:00,46.8,43.7,30.19,NW,309,13.0,18.0,89,0.00,,,0.38,Wunderground v.1.15,2013-05-02 16:05:00,
2013-05-02 11:10:00,47.0,43.6,30.19,NNW,335,13.0,20.0,88,0.00,,,0.38,Wunderground v.1.15,2013-05-02 16:10:00,
2013-05-02 11:20:00,47.1,43.1,30.21,NW,322,13.0,13.0,86,0.00,,,0.38,Wunderground v.1.15,2013-05-02 16:20:00,
2013-05-02 11:25:00,47.3,43.6,30.21,NW,319,10.0,13.0,87,0.00,,,0.38,Wunderground v.1.15,2013-05-02 16:25:00,
2013-05-02 11:35:00,47.3,43.9,30.23,WNW,299,7.0,13.0,88,0.00,,,0.38,Wunderground v.1.15,2013-05-02 16:35:00,
2013-05-02 11:40:00,47.0,43.9,30.23,NW,322,9.0,16.0,89,0.00,,,0.38,Wunderground v.1.15,2013-05-02 16:40:00,
2013-05-02 11:50:00,46.4,43.6,30.23,NW,318,9.0,9.0,90,0.00,,,0.38,Wunderground v.1.15,2013-05-02 16:50:00,
2013-05-02 11:55:00,46.5,44.0,30.24,NW,311,8.0,9.0,91,0.00,,,0.38,Wunderground v.1.15,2013-05-02 16:55:00,
2013-05-02 12:05:00,46.4,43.9,30.24,NNW,335,8.0,8.0,91,0.00,,,0.38,Wunderground v.1.15,2013-05-02 17:05:00,
2013-05-02 12:10:00,46.5,43.7,30.23,NW,325,7.0,7.0,90,0.00,,,0.38,Wunderground v.1.15,2013-05-02 17:10:00,
2013-05-02 12:20:00,47.4,44.3,30.23,NW,308,9.0,9.0,89,0.00,,,0.38,Wunderground v.1.15,2013-05-02 17:20:00,
2013-05-02 12:25:00,47.7,44.0,30.23,NNW,333,9.0,9.0,87,0.00,,,0.38,Wunderground v.1.15,2013-05-02 17:25:00,
2013-05-02 12:35:00,48.2,44.2,30.23,NNW,343,9.0,9.0,86,0.00,,,0.38,Wunderground v.1.15,2013-05-02 17:35:00,
2013-05-02 12:40:00,48.5,44.2,30.23,NW,309,8.0,13.0,85,0.00,,,0.38,Wunderground v.1.15,2013-05-02 17:40:00,
2013-05-02 12:50:00,48.8,44.5,30.23,NW,325,10.0,18.0,85,0.00,,,0.38,Wunderground v.1.15,2013-05-02 17:50:00,
2013-05-02 12:55:00,48.8,43.5,30.23,NW,322,10.0,20.0,82,0.00,,,0.38,Wunderground v.1.15,2013-05-02 17:55:00,
2013-05-02 13:04:00,49.1,44.2,30.24,NNW,335,11.0,13.0,83,0.00,,,0.38,Wunderground v.1.15,2013-05-02 18:04:00,
2013-05-02 13:10:00,49.5,44.6,30.24,WNW,299,12.0,12.0,83,0.00,,,0.38,Wunderground v.1.15,2013-05-02 18:10:00,
2013-05-02 13:20:00,49.8,44.8,30.24,NW,309,9.0,20.0,83,0.00,,,0.38,Wunderground v.1.15,2013-05-02 18:20:00,
2013-05-02 13:25:00,49.8,44.5,30.24,NW,322,9.0,20.0,82,0.00,,,0.38,Wunderground v.1.15,2013-05-02 18:25:00,
2013-05-02 13:35:00,49.6,43.7,30.24,NW,309,9.0,16.0,80,0.00,,,0.38,Wunderground v.1.15,2013-05-02 18:35:00,
2013-05-02 13:40:00,49.6,43.7,30.24,NW,306,9.0,9.0,80,0.00,,,0.38,Wunderground v.1.15,2013-05-02 18:40:00,
2013-05-02 13:50:00,50.1,44.5,30.24,North,357,9.0,9.0,81,0.00,,,0.38,Wunderground v.1.15,2013-05-02 18:50:00,
2013-05-02 13:55:00,50.1,43.8,30.25,NW,325,9.0,9.0,79,0.00,,,0.38,Wunderground v.1.15,2013-05-02 18:55:00,
2013-05-02 14:05:00,50.2,43.9,30.25,NW,305,11.0,11.0,79,0.00,,,0.38,Wunderground v.1.15,2013-05-02 19:05:00,
2013-05-02 14:10:00,50.1,43.8,30.25,NNW,342,11.0,11.0,79,0.00,,,0.38,Wunderground v.1.15,2013-05-02 19:10:00,
2013-05-02 14:20:00,49.9,44.0,30.25,NW,313,10.0,16.0,80,0.00,,,0.38,Wunderground v.1.15,2013-05-02 19:20:00,
2013-05-02 14:25:00,49.9,44.0,30.25,NNW,344,10.0,16.0,80,0.00,,,0.38,Wunderground v.1.15,2013-05-02 19:25:00,
2013-05-02 14:34:00,49.6,43.7,30.25,NW,306,14.0,29.0,80,0.00,,,0.38,Wunderground v.1.15,2013-05-02 19:34:00,
2013-05-02 14:40:00,49.6,43.7,30.24,WNW,291,12.0,12.0,80,0.00,,,0.38,Wunderground v.1.15,2013-05-02 19:40:00,
2013-05-02 14:50:00,49.4,43.2,30.25,NW,313,10.0,27.0,79,0.00,,,0.38,Wunderground v.1.15,2013-05-02 19:50:00,
2013-05-02 14:55:00,49.1,42.5,30.25,NNW,346,13.0,27.0,78,0.00,,,0.38,Wunderground v.1.15,2013-05-02 19:55:00,
2013-05-02 15:05:00,48.8,42.6,30.25,NW,313,11.0,13.0,79,0.00,,,0.38,Wunderground v.1.15,2013-05-02 20:05:00,
2013-05-02 15:10:00,48.5,42.0,30.25,NNW,335,10.0,13.0,78,0.00,,,0.38,Wunderground v.1.15,2013-05-02 20:10:00,
2013-05-02 15:20:00,48.2,42.3,30.25,NNW,342,13.0,13.0,80,0.00,,,0.38,Wunderground v.1.15,2013-05-02 20:20:00,
2013-05-02 15:25:00,48.0,42.1,30.24,WNW,291,12.0,18.0,80,0.00,,,0.38,Wunderground v.1.15,2013-05-02 20:25:00,
2013-05-02 15:35:00,48.0,42.4,30.25,NNW,330,12.0,17.0,81,0.00,,,0.38,Wunderground v.1.15,2013-05-02 20:35:00,
2013-05-02 15:40:00,47.9,42.3,30.24,NW,316,12.0,18.0,81,0.00,,,0.38,Wunderground v.1.15,2013-05-02 20:40:00,
2013-05-02 15:50:00,47.7,42.5,30.24,NNW,346,13.0,13.0,82,0.00,,,0.38,Wunderground v.1.15,2013-05-02 20:50:00,
2013-05-02 15:55:00,47.9,43.0,30.24,NNW,328,11.0,13.0,83,0.00,,,0.38,Wunderground v.1.15,2013-05-02 20:55:00,
2013-05-02 16:05:00,47.9,43.0,30.24,NW,312,11.0,11.0,83,0.00,,,0.38,Wunderground v.1.15,2013-05-02 21:05:00,
2013-05-02 16:10:00,47.7,42.8,30.24,North,357,12.0,18.0,83,0.00,,,0.38,Wunderground v.1.15,2013-05-02 21:10:00,
2013-05-02 16:20:00,47.6,41.7,30.24,NNW,335,14.0,14.0,80,0.00,,,0.38,Wunderground v.1.15,2013-05-02 21:20:00,
2013-05-02 16:25:00,47.6,41.7,30.24,WNW,285,13.0,14.0,80,0.00,,,0.38,Wunderground v.1.15,2013-05-02 21:25:00,
2013-05-02 16:35:00,47.6,42.1,30.24,NNW,336,15.0,15.0,81,0.00,,,0.38,Wunderground v.1.15,2013-05-02 21:35:00,
2013-05-02 16:40:00,47.7,42.5,30.24,NNW,342,13.0,13.0,82,0.00,,,0.38,Wunderground v.1.15,2013-05-02 21:40:00,
2013-05-02 16:50:00,47.9,42.0,30.24,NNW,330,12.0,16.0,80,0.00,,,0.38,Wunderground v.1.15,2013-05-02 21:50:00,
2013-05-02 16:55:00,48.0,41.5,30.24,WNW,298,13.0,16.0,78,0.00,,,0.38,Wunderground v.1.15,2013-05-02 21:55:00,
2013-05-02 17:05:00,47.7,42.8,30.24,NNW,339,10.0,19.0,83,0.00,,,0.38,Wunderground v.1.15,2013-05-02 22:05:00,
2013-05-02 17:10:00,47.3,42.4,30.24,NW,312,11.0,11.0,83,0.00,,,0.38,Wunderground v.1.15,2013-05-02 22:10:00,
2013-05-02 17:20:00,47.1,41.6,30.24,NNW,337,12.0,17.0,81,0.00,,,0.38,Wunderground v.1.15,2013-05-02 22:20:00,
2013-05-02 17:25:00,47.3,41.8,30.24,NNW,342,13.0,26.0,81,0.00,,,0.38,Wunderground v.1.15,2013-05-02 22:25:00,
2013-05-02 17:35:00,47.0,41.1,30.24,NW,322,14.0,14.0,80,0.00,,,0.38,Wunderground v.1.15,2013-05-02 22:35:00,
2013-05-02 17:40:00,47.3,41.4,30.24,NNW,335,14.0,14.0,80,0.00,,,0.38,Wunderground v.1.15,2013-05-02 22:40:00,
2013-05-02 17:50:00,47.4,41.2,30.24,WNW,287,11.0,11.0,79,0.00,,,0.38,Wunderground v.1.15,2013-05-02 22:50:00,
2013-05-02 17:55:00,47.3,40.8,30.24,North,0,14.0,18.0,78,0.00,,,0.38,Wunderground v.1.15,2013-05-02 22:55:00,
2013-05-02 18:05:00,47.1,40.6,30.24,NW,315,12.0,13.0,78,0.00,,,0.38,Wunderground v.1.15,2013-05-02 23:05:00,
2013-05-02 18:10:00,47.1,40.6,30.25,NNW,332,11.0,11.0,78,0.00,,,0.38,Wunderground v.1.15,2013-05-02 23:10:00,
2013-05-02 18:20:00,47.0,39.1,30.25,NNW,329,13.0,13.0,74,0.00,,,0.38,Wunderground v.1.15,2013-05-02 23:20:00,
2013-05-02 18:25:00,47.0,39.1,30.25,North,0,12.0,13.0,74,0.00,,,0.38,Wunderground v.1.15,2013-05-02 23:25:00,
2013-05-02 18:35:00,47.0,39.8,30.25,NNW,343,10.0,20.0,76,0.00,,,0.38,Wunderground v.1.15,2013-05-02 23:35:00,
2013-05-02 18:40:00,46.8,39.3,30.25,NNW,332,10.0,10.0,75,0.00,,,0.38,Wunderground v.1.15,2013-05-02 23:40:00,
2013-05-02 18:50:00,46.5,39.7,30.26,North,0,10.0,10.0,77,0.00,,,0.38,Wunderground v.1.15,2013-05-02 23:50:00,
2013-05-02 18:55:00,46.2,39.4,30.26,NNW,340,12.0,18.0,77,0.00,,,0.38,Wunderground v.1.15,2013-05-02 23:55:00,
2013-05-02 19:04:00,46.1,39.3,30.27,NNW,343,11.0,12.0,77,0.00,,,0.38,Wunderground v.1.15,2013-05-03 00:04:00,
2013-05-02 19:10:00,45.8,39.3,30.27,NNW,333,12.0,20.0,78,0.00,,,0.38,Wunderground v.1.15,2013-05-03 00:10:00,
2013-05-02 19:20:00,45.4,38.6,30.27,NNW,335,13.0,14.0,77,0.00,,,0.38,Wunderground v.1.15,2013-05-03 00:20:00,
2013-05-02 19:25:00,45.4,38.6,30.27,NW,320,13.0,14.0,77,0.00,,,0.38,Wunderground v.1.15,2013-05-03 00:25:00,
2013-05-02 19:35:00,45.4,39.3,30.27,North,354,12.0,12.0,79,0.00,,,0.38,Wunderground v.1.15,2013-05-03 00:35:00,
2013-05-02 19:40:00,45.4,39.3,30.28,NNW,329,11.0,11.0,79,0.00,,,0.38,Wunderground v.1.15,2013-05-03 00:40:00,
2013-05-02 19:50:00,45.2,38.4,30.29,NNW,346,11.0,12.0,77,0.00,,,0.38,Wunderground v.1.15,2013-05-03 00:50:00,
2013-05-02 19:55:00,45.4,38.6,30.28,NW,312,10.0,12.0,77,0.00,,,0.38,Wunderground v.1.15,2013-05-03 00:55:00,
2013-05-02 20:04:00,45.4,38.3,30.29,NNW,346,13.0,13.0,76,0.00,,,0.38,Wunderground v.1.15,2013-05-03 01:04:00,
2013-05-02 20:10:00,45.4,38.3,30.29,NW,323,13.0,14.0,76,0.00,,,0.38,Wunderground v.1.15,2013-05-03 01:10:00,
2013-05-02 20:20:00,45.4,37.9,30.29,NNW,328,12.0,19.0,75,0.00,,,0.38,Wunderground v.1.15,2013-05-03 01:20:00,
2013-05-02 20:25:00,45.5,37.7,30.29,NNW,340,13.0,19.0,74,0.00,,,0.38,Wunderground v.1.15,2013-05-03 01:25:00,
2013-05-02 20:35:00,45.5,37.3,30.30,North,0,12.0,19.0,73,0.00,,,0.38,Wunderground v.1.15,2013-05-03 01:35:00,
2013-05-02 20:40:00,45.5,37.7,30.31,North,357,11.0,11.0,74,0.00,,,0.38,Wunderground v.1.15,2013-05-03 01:40:00,
2013-05-02 20:50:00,45.7,36.8,30.31,North,0,11.0,11.0,71,0.00,,,0.38,Wunderground v.1.15,2013-05-03 01:50:00,
2013-05-02 20:55:00,45.7,37.2,30.31,North,10,10.0,11.0,72,0.00,,,0.38,Wunderground v.1.15,2013-05-03 01:55:00,
2013-05-02 21:04:00,45.7,36.8,30.31,NNW,347,10.0,10.0,71,0.00,,,0.38,Wunderground v.1.15,2013-05-03 02:04:00,
2013-05-02 21:10:00,45.7,36.8,30.32,NNW,347,9.0,9.0,71,0.00,,,0.38,Wunderground v.1.15,2013-05-03 02:10:00,
2013-05-02 21:20:00,45.8,36.9,30.32,NNW,344,7.0,7.0,71,0.00,,,0.38,Wunderground v.1.15,2013-05-03 02:20:00,
2013-05-02 21:25:00,45.8,36.9,30.32,NNW,340,9.0,9.0,71,0.00,,,0.38,Wunderground v.1.15,2013-05-03 02:25:00,
2013-05-02 21:35:00,46.0,37.1,30.32,NNW,346,9.0,10.0,71,0.00,,,0.38,Wunderground v.1.15,2013-05-03 02:35:00,
2013-05-02 21:40:00,46.0,37.1,30.33,NNW,337,10.0,10.0,71,0.00,,,0.38,Wunderground v.1.15,2013-05-03 02:40:00,
2013-05-02 21:50:00,46.1,37.2,30.33,NNW,328,9.0,9.0,71,0.00,,,0.38,Wunderground v.1.15,2013-05-03 02:50:00,
2013-05-02 21:55:00,46.2,36.6,30.33,North,349,9.0,18.0,69,0.00,,,0.38,Wunderground v.1.15,2013-05-03 02:55:00,
2013-05-02 22:05:00,46.2,37.0,30.34,NNW,330,8.0,14.0,70,0.00,,,0.38,Wunderground v.1.15,2013-05-03 03:05:00,
2013-05-02 22:10:00,46.1,36.5,30.34,North,0,10.0,10.0,69,0.00,,,0.38,Wunderground v.1.15,2013-05-03 03:10:00,
2013-05-02 22:20:00,46.1,36.1,30.34,NNW,336,11.0,19.0,68,0.00,,,0.38,Wunderground v.1.15,2013-05-03 03:20:00,
2013-05-02 22:25:00,46.2,36.6,30.33,NW,315,12.0,19.0,69,0.00,,,0.38,Wunderground v.1.15,2013-05-03 03:25:00,
2013-05-02 22:35:00,46.4,36.0,30.33,North,354,11.0,11.0,67,0.00,,,0.38,Wunderground v.1.15,2013-05-03 03:35:00,
2013-05-02 22:40:00,46.5,35.4,30.33,NNW,339,12.0,12.0,65,0.00,,,0.38,Wunderground v.1.15,2013-05-03 03:40:00,
2013-05-02 22:50:00,46.4,35.7,30.34,NW,325,11.0,11.0,66,0.00,,,0.38,Wunderground v.1.15,2013-05-03 03:50:00,
2013-05-02 22:55:00,46.5,35.0,30.33,NNE,21,10.0,11.0,64,0.00,,,0.38,Wunderground v.1.15,2013-05-03 03:55:00,
2013-05-02 23:05:00,46.4,35.7,30.34,WNW,294,10.0,11.0,66,0.00,,,0.38,Wunderground v.1.15,2013-05-03 04:05:00,
2013-05-02 23:10:00,46.4,35.7,30.34,North,0,11.0,11.0,66,0.00,,,0.38,Wunderground v.1.15,2013-05-03 04:10:00,
2013-05-02 23:15:00,46.2,35.5,30.34,NNW,344,9.0,11.0,66,0.00,,,0.38,Wunderground v.1.15,2013-05-03 04:15:00,
2013-05-02 23:20:00,46.2,35.1,30.34,NNE,20,10.0,10.0,65,0.00,,,0.38,Wunderground v.1.15,2013-05-03 04:20:00,
2013-05-02 23:25:00,46.1,35.0,30.34,NNW,340,10.0,10.0,65,0.00,,,0.38,Wunderground v.1.15,2013-05-03 04:25:00,
2013-05-02 23:35:00,46.1,35.0,30.33,NNW,336,10.0,13.0,65,0.00,,,0.38,Wunderground v.1.15,2013-05-03 04:35:00,
2013-05-02 23:40:00,46.0,34.9,30.34,NNW,344,8.0,16.0,65,0.00,,,0.38,Wunderground v.1.15,2013-05-03 04:40:00,
2013-05-02 23:50:00,45.7,35.4,30.34,NNW,332,8.0,17.0,67,0.00,,,0.38,Wunderground v.1.15,2013-05-03 04:50:00,
2013-05-02 23:55:00,45.5,34.8,30.34,NNW,340,9.0,17.0,66,0.00,,,0.38,Wunderground v.1.15,2013-05-03 04:55:00,